owner,sensor,date,latitude,longitude,vertical_datum,sea_water_practical_salinity,qcFlag 
DISL,ioos:station:DISL:CATA:1,2011-11-01T00:00:00Z,30.3085,-88.1395,1.927,18.36,1111122 
DISL,ioos:station:DISL:CATA:1,2011-11-01T00:30:00Z,30.3085,-88.1395,1.955,18.73,1111122 
DISL,ioos:station:DISL:CATA:1,2011-11-01T01:00:00Z,30.3085,-88.1395,1.984,18.74,1111122 
DISL,ioos:station:DISL:CATA:1,2011-11-01T01:30:00Z,30.3085,-88.1395,2.008,18.39,1111122 
DISL,ioos:station:DISL:CATA:1,2011-11-01T02:00:00Z,30.3085,-88.1395,2.032,18.03,1111122 
DISL,ioos:station:DISL:CATA:1,2011-11-01T02:30:00Z,30.3085,-88.1395,2.059,17.93,1111122 
DISL,ioos:station:DISL:CATA:1,2011-11-01T03:00:00Z,30.3085,-88.1395,2.086,17.83,1111122 
DISL,ioos:station:DISL:CATA:1,2011-11-01T03:30:00Z,30.3085,-88.1395,2.121,17.67,1111122 
DISL,ioos:station:DISL:CATA:1,2011-11-01T04:00:00Z,30.3085,-88.1395,2.142,17.52,1111122 
DISL,ioos:station:DISL:CATA:1,2011-11-01T04:30:00Z,30.3085,-88.1395,2.171,17.61,1111122 
DISL,ioos:station:DISL:CATA:1,2011-11-01T05:00:00Z,30.3085,-88.1395,2.188,17.8,1111122 
DISL,ioos:station:DISL:CATA:1,2011-11-01T05:30:00Z,30.3085,-88.1395,2.213,17.97,1111122 
DISL,ioos:station:DISL:CATA:1,2011-11-01T06:00:00Z,30.3085,-88.1395,2.234,18.31,1111122 
DISL,ioos:station:DISL:CATA:1,2011-11-01T06:30:00Z,30.3085,-88.1395,2.252,18.46,1111122 
DISL,ioos:station:DISL:CATA:1,2011-11-01T07:00:00Z,30.3085,-88.1395,2.27,18.54,1111122 
DISL,ioos:station:DISL:CATA:1,2011-11-01T07:30:00Z,30.3085,-88.1395,2.267,18.79,1111122 
DISL,ioos:station:DISL:CATA:1,2011-11-01T08:00:00Z,30.3085,-88.1395,2.262,18.98,1111122 
DISL,ioos:station:DISL:CATA:1,2011-11-01T08:30:00Z,30.3085,-88.1395,2.247,19.18,1111122 
DISL,ioos:station:DISL:CATA:1,2011-11-01T09:00:00Z,30.3085,-88.1395,2.229,19.71,1111122 
DISL,ioos:station:DISL:CATA:1,2011-11-01T09:30:00Z,30.3085,-88.1395,2.218,19.88,1111122 
DISL,ioos:station:DISL:CATA:1,2011-11-01T10:00:00Z,30.3085,-88.1395,2.19,19.93,1111122 
DISL,ioos:station:DISL:CATA:1,2011-11-01T10:30:00Z,30.3085,-88.1395,2.18,19.17,1111122 
DISL,ioos:station:DISL:CATA:1,2011-11-01T11:00:00Z,30.3085,-88.1395,2.146,18.27,1111122 
DISL,ioos:station:DISL:CATA:1,2011-11-01T11:30:00Z,30.3085,-88.1395,2.113,17.45,1111122 
DISL,ioos:station:DISL:CATA:1,2011-11-01T12:00:00Z,30.3085,-88.1395,2.084,17.91,1111122 
DISL,ioos:station:DISL:CATA:1,2011-11-01T12:30:00Z,30.3085,-88.1395,2.052,17.96,1111122 
DISL,ioos:station:DISL:CATA:1,2011-11-01T13:00:00Z,30.3085,-88.1395,2.016,17.68,1111122 
DISL,ioos:station:DISL:CATA:1,2011-11-01T13:30:00Z,30.3085,-88.1395,1.973,17.66,1111122 
DISL,ioos:station:DISL:CATA:1,2011-11-01T14:00:00Z,30.3085,-88.1395,1.945,17.69,1111122 
DISL,ioos:station:DISL:CATA:1,2011-11-01T14:30:00Z,30.3085,-88.1395,1.912,18.1,1111122 
DISL,ioos:station:DISL:CATA:1,2011-11-01T15:00:00Z,30.3085,-88.1395,1.882,18.36,1111122 
DISL,ioos:station:DISL:CATA:1,2011-11-01T15:30:00Z,30.3085,-88.1395,1.864,18.58,1111122 
DISL,ioos:station:DISL:CATA:1,2011-11-01T16:00:00Z,30.3085,-88.1395,1.836,18.82,1111122 
DISL,ioos:station:DISL:CATA:1,2011-11-01T16:30:00Z,30.3085,-88.1395,1.819,18.83,1111122 
DISL,ioos:station:DISL:CATA:1,2011-11-01T17:00:00Z,30.3085,-88.1395,1.812,18.99,1111122 
DISL,ioos:station:DISL:CATA:1,2011-11-01T17:30:00Z,30.3085,-88.1395,1.812,18.7,1111122 
DISL,ioos:station:DISL:CATA:1,2011-11-01T18:00:00Z,30.3085,-88.1395,1.808,19.13,1111122 
DISL,ioos:station:DISL:CATA:1,2011-11-01T18:30:00Z,30.3085,-88.1395,1.812,19.16,1111122 
DISL,ioos:station:DISL:CATA:1,2011-11-01T19:00:00Z,30.3085,-88.1395,1.811,19.35,1111122 
DISL,ioos:station:DISL:CATA:1,2011-11-01T19:30:00Z,30.3085,-88.1395,1.829,19.19,1111122 
DISL,ioos:station:DISL:CATA:1,2011-11-01T20:00:00Z,30.3085,-88.1395,1.844,19.35,1111122 
DISL,ioos:station:DISL:CATA:1,2011-11-01T20:30:00Z,30.3085,-88.1395,1.857,19.43,1111122 
DISL,ioos:station:DISL:CATA:1,2011-11-01T21:00:00Z,30.3085,-88.1395,1.865,19.68,1111122 
DISL,ioos:station:DISL:CATA:1,2011-11-01T21:30:00Z,30.3085,-88.1395,1.883,19.82,1111122 
DISL,ioos:station:DISL:CATA:1,2011-11-01T22:00:00Z,30.3085,-88.1395,1.904,19.9,1111122 
DISL,ioos:station:DISL:CATA:1,2011-11-01T22:30:00Z,30.3085,-88.1395,1.926,19.97,1111122 
DISL,ioos:station:DISL:CATA:1,2011-11-01T23:00:00Z,30.3085,-88.1395,1.949,19.98,1111122 
DISL,ioos:station:DISL:CATA:1,2011-11-01T23:30:00Z,30.3085,-88.1395,1.966,19.82,1111122 
DISL,ioos:station:DISL:CATA:1,2011-11-02T00:00:00Z,30.3085,-88.1395,1.992,19.51,1111122 
DISL,ioos:station:DISL:CATA:1,2011-11-02T00:30:00Z,30.3085,-88.1395,2.017,19.51,1111122 
DISL,ioos:station:DISL:CATA:1,2011-11-02T01:00:00Z,30.3085,-88.1395,2.043,19.17,1111122 
DISL,ioos:station:DISL:CATA:1,2011-11-02T01:30:00Z,30.3085,-88.1395,2.071,19.25,1111122 
DISL,ioos:station:DISL:CATA:1,2011-11-02T02:00:00Z,30.3085,-88.1395,2.101,19.52,1111122 
DISL,ioos:station:DISL:CATA:1,2011-11-02T02:30:00Z,30.3085,-88.1395,2.13,19.43,1111122 
DISL,ioos:station:DISL:CATA:1,2011-11-02T03:00:00Z,30.3085,-88.1395,2.157,19.25,1111122 
DISL,ioos:station:DISL:CATA:1,2011-11-02T03:30:00Z,30.3085,-88.1395,2.179,18.77,1111122 
DISL,ioos:station:DISL:CATA:1,2011-11-02T04:00:00Z,30.3085,-88.1395,2.201,18.69,1111122 
DISL,ioos:station:DISL:CATA:1,2011-11-02T04:30:00Z,30.3085,-88.1395,2.222,18.4,1111122 
DISL,ioos:station:DISL:CATA:1,2011-11-02T05:00:00Z,30.3085,-88.1395,2.238,18.34,1111122 
DISL,ioos:station:DISL:CATA:1,2011-11-02T05:30:00Z,30.3085,-88.1395,2.259,18.32,1111122 
DISL,ioos:station:DISL:CATA:1,2011-11-02T06:00:00Z,30.3085,-88.1395,2.277,18.11,1111122 
DISL,ioos:station:DISL:CATA:1,2011-11-02T06:30:00Z,30.3085,-88.1395,2.291,18.22,1111122 
DISL,ioos:station:DISL:CATA:1,2011-11-02T07:00:00Z,30.3085,-88.1395,2.304,17.82,1111122 
DISL,ioos:station:DISL:CATA:1,2011-11-02T07:30:00Z,30.3085,-88.1395,2.305,18.12,1111122 
DISL,ioos:station:DISL:CATA:1,2011-11-02T08:00:00Z,30.3085,-88.1395,2.294,17.95,1111122 
DISL,ioos:station:DISL:CATA:1,2011-11-02T08:30:00Z,30.3085,-88.1395,2.287,18.09,1111122 
DISL,ioos:station:DISL:CATA:1,2011-11-02T09:00:00Z,30.3085,-88.1395,2.277,18.23,1111122 
DISL,ioos:station:DISL:CATA:1,2011-11-02T09:30:00Z,30.3085,-88.1395,2.26,18.34,1111122 
DISL,ioos:station:DISL:CATA:1,2011-11-02T10:00:00Z,30.3085,-88.1395,2.242,18.61,1111122 
DISL,ioos:station:DISL:CATA:1,2011-11-02T10:30:00Z,30.3085,-88.1395,2.223,18.32,1111122 
DISL,ioos:station:DISL:CATA:1,2011-11-02T11:00:00Z,30.3085,-88.1395,2.199,18.41,1111122 
DISL,ioos:station:DISL:CATA:1,2011-11-02T11:30:00Z,30.3085,-88.1395,2.161,18.06,1111122 
DISL,ioos:station:DISL:CATA:1,2011-11-02T12:00:00Z,30.3085,-88.1395,2.145,18.09,1111122 
DISL,ioos:station:DISL:CATA:1,2011-11-02T12:30:00Z,30.3085,-88.1395,2.107,19.16,1111122 
DISL,ioos:station:DISL:CATA:1,2011-11-02T13:00:00Z,30.3085,-88.1395,2.063,19.9,1111122 
DISL,ioos:station:DISL:CATA:1,2011-11-02T13:30:00Z,30.3085,-88.1395,2.044,20.3,1111122 
DISL,ioos:station:DISL:CATA:1,2011-11-02T14:00:00Z,30.3085,-88.1395,2.023,20.12,1111122 
DISL,ioos:station:DISL:CATA:1,2011-11-02T14:30:00Z,30.3085,-88.1395,1.986,20.27,1111122 
DISL,ioos:station:DISL:CATA:1,2011-11-02T15:00:00Z,30.3085,-88.1395,1.953,20.26,1111122 
DISL,ioos:station:DISL:CATA:1,2011-11-02T15:30:00Z,30.3085,-88.1395,1.921,20.22,1111122 
DISL,ioos:station:DISL:CATA:1,2011-11-02T16:00:00Z,30.3085,-88.1395,1.895,20.2,1111122 
DISL,ioos:station:DISL:CATA:1,2011-11-02T16:30:00Z,30.3085,-88.1395,1.884,20.14,1111122 
DISL,ioos:station:DISL:CATA:1,2011-11-02T17:00:00Z,30.3085,-88.1395,1.878,19.9,1111122 
DISL,ioos:station:DISL:CATA:1,2011-11-02T17:30:00Z,30.3085,-88.1395,1.864,19.68,1111122 
DISL,ioos:station:DISL:CATA:1,2011-11-02T18:00:00Z,30.3085,-88.1395,1.856,19.95,1111122 
DISL,ioos:station:DISL:CATA:1,2011-11-02T18:30:00Z,30.3085,-88.1395,1.861,19.97,1111122 
DISL,ioos:station:DISL:CATA:1,2011-11-02T19:00:00Z,30.3085,-88.1395,1.866,20.1,1111122 
DISL,ioos:station:DISL:CATA:1,2011-11-02T19:30:00Z,30.3085,-88.1395,1.871,19.77,1111122 
DISL,ioos:station:DISL:CATA:1,2011-11-02T20:00:00Z,30.3085,-88.1395,1.877,20.09,1111122 
DISL,ioos:station:DISL:CATA:1,2011-11-02T20:30:00Z,30.3085,-88.1395,1.886,20.01,1111122 
DISL,ioos:station:DISL:CATA:1,2011-11-02T21:00:00Z,30.3085,-88.1395,1.898,20.0,1111122 
DISL,ioos:station:DISL:CATA:1,2011-11-02T21:30:00Z,30.3085,-88.1395,1.909,19.98,1111122 
DISL,ioos:station:DISL:CATA:1,2011-11-02T22:00:00Z,30.3085,-88.1395,1.923,20.05,1111122 
DISL,ioos:station:DISL:CATA:1,2011-11-02T22:30:00Z,30.3085,-88.1395,1.948,20.42,1111122 
DISL,ioos:station:DISL:CATA:1,2011-11-02T23:00:00Z,30.3085,-88.1395,1.965,20.43,1111122 
DISL,ioos:station:DISL:CATA:1,2011-11-02T23:30:00Z,30.3085,-88.1395,1.988,20.09,1111122 
DISL,ioos:station:DISL:CATA:1,2011-11-03T00:00:00Z,30.3085,-88.1395,1.994,20.29,1111122 
DISL,ioos:station:DISL:CATA:1,2011-11-03T00:30:00Z,30.3085,-88.1395,2.025,20.63,1111122 
DISL,ioos:station:DISL:CATA:1,2011-11-03T01:00:00Z,30.3085,-88.1395,2.048,20.53,1111122 
DISL,ioos:station:DISL:CATA:1,2011-11-03T01:30:00Z,30.3085,-88.1395,2.082,20.63,1111122 
DISL,ioos:station:DISL:CATA:1,2011-11-03T02:00:00Z,30.3085,-88.1395,2.099,20.54,1111122 
DISL,ioos:station:DISL:CATA:1,2011-11-03T02:30:00Z,30.3085,-88.1395,2.126,20.6,1111122 
DISL,ioos:station:DISL:CATA:1,2011-11-03T03:00:00Z,30.3085,-88.1395,2.13,20.43,1111122 
DISL,ioos:station:DISL:CATA:1,2011-11-03T03:30:00Z,30.3085,-88.1395,2.162,20.21,1111122 
DISL,ioos:station:DISL:CATA:1,2011-11-03T04:00:00Z,30.3085,-88.1395,2.172,20.1,1111122 
DISL,ioos:station:DISL:CATA:1,2011-11-03T04:30:00Z,30.3085,-88.1395,2.195,20.0,1111122 
DISL,ioos:station:DISL:CATA:1,2011-11-03T05:00:00Z,30.3085,-88.1395,2.219,19.72,1111122 
DISL,ioos:station:DISL:CATA:1,2011-11-03T05:30:00Z,30.3085,-88.1395,2.241,20.05,1111122 
DISL,ioos:station:DISL:CATA:1,2011-11-03T06:00:00Z,30.3085,-88.1395,2.261,20.46,1111122 
DISL,ioos:station:DISL:CATA:1,2011-11-03T06:30:00Z,30.3085,-88.1395,2.289,20.53,1111122 
DISL,ioos:station:DISL:CATA:1,2011-11-03T07:00:00Z,30.3085,-88.1395,2.305,20.37,1111122 
DISL,ioos:station:DISL:CATA:1,2011-11-03T07:30:00Z,30.3085,-88.1395,2.33,20.72,1111122 
DISL,ioos:station:DISL:CATA:1,2011-11-03T08:00:00Z,30.3085,-88.1395,2.334,20.8,1111122 
DISL,ioos:station:DISL:CATA:1,2011-11-03T08:30:00Z,30.3085,-88.1395,2.346,20.86,1111122 
DISL,ioos:station:DISL:CATA:1,2011-11-03T09:00:00Z,30.3085,-88.1395,2.357,21.08,1111122 
DISL,ioos:station:DISL:CATA:1,2011-11-03T09:30:00Z,30.3085,-88.1395,2.345,20.86,1111122 
DISL,ioos:station:DISL:CATA:1,2011-11-03T10:00:00Z,30.3085,-88.1395,2.325,21.09,1111122 
DISL,ioos:station:DISL:CATA:1,2011-11-03T10:30:00Z,30.3085,-88.1395,2.31,21.09,1111122 
DISL,ioos:station:DISL:CATA:1,2011-11-03T11:00:00Z,30.3085,-88.1395,2.291,20.98,1111122 
DISL,ioos:station:DISL:CATA:1,2011-11-03T11:30:00Z,30.3085,-88.1395,2.281,20.72,1111122 
DISL,ioos:station:DISL:CATA:1,2011-11-03T12:00:00Z,30.3085,-88.1395,2.284,20.47,1111122 
DISL,ioos:station:DISL:CATA:1,2011-11-03T12:30:00Z,30.3085,-88.1395,2.261,20.29,1111122 
DISL,ioos:station:DISL:CATA:1,2011-11-03T13:00:00Z,30.3085,-88.1395,2.238,20.88,1111122 
DISL,ioos:station:DISL:CATA:1,2011-11-03T13:30:00Z,30.3085,-88.1395,2.217,21.1,1111122 
DISL,ioos:station:DISL:CATA:1,2011-11-03T14:00:00Z,30.3085,-88.1395,2.213,20.77,1111122 
DISL,ioos:station:DISL:CATA:1,2011-11-03T14:30:00Z,30.3085,-88.1395,2.201,20.71,1111122 
DISL,ioos:station:DISL:CATA:1,2011-11-03T15:00:00Z,30.3085,-88.1395,2.184,20.35,1111122 
DISL,ioos:station:DISL:CATA:1,2011-11-03T15:30:00Z,30.3085,-88.1395,2.168,20.41,1111122 
DISL,ioos:station:DISL:CATA:1,2011-11-03T16:00:00Z,30.3085,-88.1395,2.154,21.1,1111122 
DISL,ioos:station:DISL:CATA:1,2011-11-03T16:30:00Z,30.3085,-88.1395,2.142,21.34,1111122 
DISL,ioos:station:DISL:CATA:1,2011-11-03T17:00:00Z,30.3085,-88.1395,2.143,21.54,1111122 
DISL,ioos:station:DISL:CATA:1,2011-11-03T17:30:00Z,30.3085,-88.1395,2.123,21.17,1111122 
DISL,ioos:station:DISL:CATA:1,2011-11-03T18:00:00Z,30.3085,-88.1395,2.113,21.6,1111122 
DISL,ioos:station:DISL:CATA:1,2011-11-03T18:30:00Z,30.3085,-88.1395,2.092,21.62,1111122 
DISL,ioos:station:DISL:CATA:1,2011-11-03T19:00:00Z,30.3085,-88.1395,2.086,21.36,1111122 
DISL,ioos:station:DISL:CATA:1,2011-11-03T19:30:00Z,30.3085,-88.1395,2.09,21.25,1111122 
DISL,ioos:station:DISL:CATA:1,2011-11-03T20:00:00Z,30.3085,-88.1395,2.105,20.82,1111122 
DISL,ioos:station:DISL:CATA:1,2011-11-03T20:30:00Z,30.3085,-88.1395,2.09,20.86,1111122 
DISL,ioos:station:DISL:CATA:1,2011-11-03T21:00:00Z,30.3085,-88.1395,2.073,20.53,1111122 
DISL,ioos:station:DISL:CATA:1,2011-11-03T21:30:00Z,30.3085,-88.1395,2.14,20.75,1111122 
DISL,ioos:station:DISL:CATA:1,2011-11-03T22:00:00Z,30.3085,-88.1395,2.107,20.57,1111122 
DISL,ioos:station:DISL:CATA:1,2011-11-03T22:30:00Z,30.3085,-88.1395,2.032,20.32,1111122 
DISL,ioos:station:DISL:CATA:1,2011-11-03T23:00:00Z,30.3085,-88.1395,2.003,20.62,1111122 
DISL,ioos:station:DISL:CATA:1,2011-11-03T23:30:00Z,30.3085,-88.1395,2.005,20.74,1111122 
DISL,ioos:station:DISL:CATA:1,2011-11-04T00:00:00Z,30.3085,-88.1395,1.991,21.37,1111122 
DISL,ioos:station:DISL:CATA:1,2011-11-04T00:30:00Z,30.3085,-88.1395,1.962,21.6,1111122 
DISL,ioos:station:DISL:CATA:1,2011-11-04T01:00:00Z,30.3085,-88.1395,1.979,21.66,1111122 
DISL,ioos:station:DISL:CATA:1,2011-11-04T01:30:00Z,30.3085,-88.1395,2.011,21.49,1111122 
DISL,ioos:station:DISL:CATA:1,2011-11-04T02:00:00Z,30.3085,-88.1395,2.021,21.48,1111122 
DISL,ioos:station:DISL:CATA:1,2011-11-04T02:30:00Z,30.3085,-88.1395,2.023,21.65,1111122 
DISL,ioos:station:DISL:CATA:1,2011-11-04T03:00:00Z,30.3085,-88.1395,2.019,21.07,1111122 
DISL,ioos:station:DISL:CATA:1,2011-11-04T03:30:00Z,30.3085,-88.1395,1.985,21.45,1111122 
DISL,ioos:station:DISL:CATA:1,2011-11-04T04:00:00Z,30.3085,-88.1395,1.957,21.6,1111122 
DISL,ioos:station:DISL:CATA:1,2011-11-04T04:30:00Z,30.3085,-88.1395,1.931,21.14,1111122 
DISL,ioos:station:DISL:CATA:1,2011-11-04T05:00:00Z,30.3085,-88.1395,1.937,21.32,1111122 
DISL,ioos:station:DISL:CATA:1,2011-11-04T05:30:00Z,30.3085,-88.1395,1.896,21.15,1111122 
DISL,ioos:station:DISL:CATA:1,2011-11-04T06:00:00Z,30.3085,-88.1395,1.886,20.81,1111122 
DISL,ioos:station:DISL:CATA:1,2011-11-04T06:30:00Z,30.3085,-88.1395,1.926,20.74,1111122 
DISL,ioos:station:DISL:CATA:1,2011-11-04T07:00:00Z,30.3085,-88.1395,1.959,20.87,1111122 
DISL,ioos:station:DISL:CATA:1,2011-11-04T07:30:00Z,30.3085,-88.1395,1.948,20.14,1111122 
DISL,ioos:station:DISL:CATA:1,2011-11-04T08:00:00Z,30.3085,-88.1395,1.948,20.01,1111122 
DISL,ioos:station:DISL:CATA:1,2011-11-04T08:30:00Z,30.3085,-88.1395,1.98,19.95,1111122 
DISL,ioos:station:DISL:CATA:1,2011-11-04T09:00:00Z,30.3085,-88.1395,1.998,19.91,1111122 
DISL,ioos:station:DISL:CATA:1,2011-11-04T09:30:00Z,30.3085,-88.1395,2.004,20.1,1111122 
DISL,ioos:station:DISL:CATA:1,2011-11-04T10:00:00Z,30.3085,-88.1395,2.032,20.01,1111122 
DISL,ioos:station:DISL:CATA:1,2011-11-04T10:30:00Z,30.3085,-88.1395,2.037,20.13,1111122 
DISL,ioos:station:DISL:CATA:1,2011-11-04T11:00:00Z,30.3085,-88.1395,2.042,20.22,1111122 
DISL,ioos:station:DISL:CATA:1,2011-11-04T11:30:00Z,30.3085,-88.1395,2.045,19.7,1111122 
DISL,ioos:station:DISL:CATA:1,2011-11-04T12:00:00Z,30.3085,-88.1395,2.045,20.0,1111122 
DISL,ioos:station:DISL:CATA:1,2011-11-04T12:30:00Z,30.3085,-88.1395,2.022,19.9,1111122 
DISL,ioos:station:DISL:CATA:1,2011-11-04T13:00:00Z,30.3085,-88.1395,2.006,19.65,1111122 
DISL,ioos:station:DISL:CATA:1,2011-11-04T13:30:00Z,30.3085,-88.1395,1.999,19.66,1111122 
DISL,ioos:station:DISL:CATA:1,2011-11-04T14:00:00Z,30.3085,-88.1395,2.013,19.74,1111122 
DISL,ioos:station:DISL:CATA:1,2011-11-04T14:30:00Z,30.3085,-88.1395,2.289,24.76,1111122 
DISL,ioos:station:DISL:CATA:1,2011-11-04T15:00:00Z,30.3085,-88.1395,2.328,24.75,1111122 
DISL,ioos:station:DISL:CATA:1,2011-11-04T15:30:00Z,30.3085,-88.1395,2.346,24.75,1111122 
DISL,ioos:station:DISL:CATA:1,2011-11-04T16:00:00Z,30.3085,-88.1395,2.375,24.72,1111122 
DISL,ioos:station:DISL:CATA:1,2011-11-04T16:30:00Z,30.3085,-88.1395,2.356,24.91,1111122 
DISL,ioos:station:DISL:CATA:1,2011-11-04T17:00:00Z,30.3085,-88.1395,2.33,24.72,1111122 
DISL,ioos:station:DISL:CATA:1,2011-11-04T17:30:00Z,30.3085,-88.1395,2.307,24.45,1111122 
DISL,ioos:station:DISL:CATA:1,2011-11-04T18:00:00Z,30.3085,-88.1395,2.283,24.94,1111122 
DISL,ioos:station:DISL:CATA:1,2011-11-04T18:30:00Z,30.3085,-88.1395,2.25,25.12,1111122 
DISL,ioos:station:DISL:CATA:1,2011-11-04T19:00:00Z,30.3085,-88.1395,2.246,25.2,1111122 
DISL,ioos:station:DISL:CATA:1,2011-11-04T19:30:00Z,30.3085,-88.1395,2.234,25.22,1111122 
DISL,ioos:station:DISL:CATA:1,2011-11-04T20:00:00Z,30.3085,-88.1395,2.227,25.25,1111122 
DISL,ioos:station:DISL:CATA:1,2011-11-04T20:30:00Z,30.3085,-88.1395,2.216,25.24,1111122 
DISL,ioos:station:DISL:CATA:1,2011-11-04T21:00:00Z,30.3085,-88.1395,2.202,25.23,1111122 
DISL,ioos:station:DISL:CATA:1,2011-11-04T21:30:00Z,30.3085,-88.1395,2.206,24.98,1111122 
DISL,ioos:station:DISL:CATA:1,2011-11-04T22:00:00Z,30.3085,-88.1395,2.239,24.9,1111122 
DISL,ioos:station:DISL:CATA:1,2011-11-04T22:30:00Z,30.3085,-88.1395,2.254,24.82,1111122 
DISL,ioos:station:DISL:CATA:1,2011-11-04T23:00:00Z,30.3085,-88.1395,2.273,24.92,1111122 
DISL,ioos:station:DISL:CATA:1,2011-11-04T23:30:00Z,30.3085,-88.1395,2.245,24.69,1111122 
DISL,ioos:station:DISL:CATA:1,2011-11-05T00:00:00Z,30.3085,-88.1395,2.239,24.55,1111122 
DISL,ioos:station:DISL:CATA:1,2011-11-05T00:30:00Z,30.3085,-88.1395,2.253,24.41,1111122 
DISL,ioos:station:DISL:CATA:1,2011-11-05T01:00:00Z,30.3085,-88.1395,2.247,23.95,1111122 
DISL,ioos:station:DISL:CATA:1,2011-11-05T01:30:00Z,30.3085,-88.1395,2.245,23.97,1111122 
DISL,ioos:station:DISL:CATA:1,2011-11-05T02:00:00Z,30.3085,-88.1395,2.258,24.37,1111122 
DISL,ioos:station:DISL:CATA:1,2011-11-05T02:30:00Z,30.3085,-88.1395,2.275,24.49,1111122 
DISL,ioos:station:DISL:CATA:1,2011-11-05T03:00:00Z,30.3085,-88.1395,2.304,24.65,1111122 
DISL,ioos:station:DISL:CATA:1,2011-11-05T03:30:00Z,30.3085,-88.1395,2.313,24.74,1111122 
DISL,ioos:station:DISL:CATA:1,2011-11-05T04:00:00Z,30.3085,-88.1395,2.319,24.82,1111122 
DISL,ioos:station:DISL:CATA:1,2011-11-05T04:30:00Z,30.3085,-88.1395,2.324,25.14,1111122 
DISL,ioos:station:DISL:CATA:1,2011-11-05T05:00:00Z,30.3085,-88.1395,2.316,25.16,1111122 
DISL,ioos:station:DISL:CATA:1,2011-11-05T05:30:00Z,30.3085,-88.1395,2.308,25.14,1111122 
DISL,ioos:station:DISL:CATA:1,2011-11-05T06:00:00Z,30.3085,-88.1395,2.298,24.86,1111122 
DISL,ioos:station:DISL:CATA:1,2011-11-05T06:30:00Z,30.3085,-88.1395,2.289,24.84,1111122 
DISL,ioos:station:DISL:CATA:1,2011-11-05T07:00:00Z,30.3085,-88.1395,2.288,24.42,1111122 
DISL,ioos:station:DISL:CATA:1,2011-11-05T07:30:00Z,30.3085,-88.1395,2.284,24.29,1111122 
DISL,ioos:station:DISL:CATA:1,2011-11-05T08:00:00Z,30.3085,-88.1395,2.276,24.71,1111122 
DISL,ioos:station:DISL:CATA:1,2011-11-05T08:30:00Z,30.3085,-88.1395,2.254,25.12,1111122 
DISL,ioos:station:DISL:CATA:1,2011-11-05T09:00:00Z,30.3085,-88.1395,2.25,25.16,1111122 
DISL,ioos:station:DISL:CATA:1,2011-11-05T09:30:00Z,30.3085,-88.1395,2.241,25.09,1111122 
DISL,ioos:station:DISL:CATA:1,2011-11-05T10:00:00Z,30.3085,-88.1395,2.264,25.13,1111122 
DISL,ioos:station:DISL:CATA:1,2011-11-05T10:30:00Z,30.3085,-88.1395,2.287,25.17,1111122 
DISL,ioos:station:DISL:CATA:1,2011-11-05T11:00:00Z,30.3085,-88.1395,2.294,25.15,1111122 
DISL,ioos:station:DISL:CATA:1,2011-11-05T11:30:00Z,30.3085,-88.1395,2.3,25.13,1111122 
DISL,ioos:station:DISL:CATA:1,2011-11-05T12:00:00Z,30.3085,-88.1395,2.315,25.11,1111122 
DISL,ioos:station:DISL:CATA:1,2011-11-05T12:30:00Z,30.3085,-88.1395,2.32,25.03,1111122 
DISL,ioos:station:DISL:CATA:1,2011-11-05T13:00:00Z,30.3085,-88.1395,2.319,25.06,1111122 
DISL,ioos:station:DISL:CATA:1,2011-11-05T13:30:00Z,30.3085,-88.1395,2.324,25.12,1111122 
DISL,ioos:station:DISL:CATA:1,2011-11-05T14:00:00Z,30.3085,-88.1395,2.328,25.18,1111122 
DISL,ioos:station:DISL:CATA:1,2011-11-05T14:30:00Z,30.3085,-88.1395,2.33,25.13,1111122 
DISL,ioos:station:DISL:CATA:1,2011-11-05T15:00:00Z,30.3085,-88.1395,2.331,25.08,1111122 
DISL,ioos:station:DISL:CATA:1,2011-11-05T15:30:00Z,30.3085,-88.1395,2.326,25.09,1111122 
DISL,ioos:station:DISL:CATA:1,2011-11-05T16:00:00Z,30.3085,-88.1395,2.311,25.09,1111122 
DISL,ioos:station:DISL:CATA:1,2011-11-05T16:30:00Z,30.3085,-88.1395,2.304,25.04,1111122 
DISL,ioos:station:DISL:CATA:1,2011-11-05T17:00:00Z,30.3085,-88.1395,2.3,25.03,1111122 
DISL,ioos:station:DISL:CATA:1,2011-11-05T17:30:00Z,30.3085,-88.1395,2.305,25.07,1111122 
DISL,ioos:station:DISL:CATA:1,2011-11-05T18:00:00Z,30.3085,-88.1395,2.311,25.1,1111122 
DISL,ioos:station:DISL:CATA:1,2011-11-05T18:30:00Z,30.3085,-88.1395,2.31,25.17,1111122 
DISL,ioos:station:DISL:CATA:1,2011-11-05T19:00:00Z,30.3085,-88.1395,2.314,25.61,1111122 
DISL,ioos:station:DISL:CATA:1,2011-11-05T19:30:00Z,30.3085,-88.1395,2.32,25.82,1111122 
DISL,ioos:station:DISL:CATA:1,2011-11-05T20:00:00Z,30.3085,-88.1395,2.312,26.07,1111122 
DISL,ioos:station:DISL:CATA:1,2011-11-05T20:30:00Z,30.3085,-88.1395,2.313,26.15,1111122 
DISL,ioos:station:DISL:CATA:1,2011-11-05T21:00:00Z,30.3085,-88.1395,2.321,26.27,1111122 
DISL,ioos:station:DISL:CATA:1,2011-11-05T21:30:00Z,30.3085,-88.1395,2.341,26.39,1111122 
DISL,ioos:station:DISL:CATA:1,2011-11-05T22:00:00Z,30.3085,-88.1395,2.362,26.64,1111122 
DISL,ioos:station:DISL:CATA:1,2011-11-05T22:30:00Z,30.3085,-88.1395,2.38,26.71,1111122 
DISL,ioos:station:DISL:CATA:1,2011-11-05T23:00:00Z,30.3085,-88.1395,2.394,26.51,1111122 
DISL,ioos:station:DISL:CATA:1,2011-11-05T23:30:00Z,30.3085,-88.1395,2.406,26.1,1111122 
DISL,ioos:station:DISL:CATA:1,2011-11-06T00:00:00Z,30.3085,-88.1395,2.426,26.07,1111122 
DISL,ioos:station:DISL:CATA:1,2011-11-06T00:30:00Z,30.3085,-88.1395,2.428,25.97,1111122 
DISL,ioos:station:DISL:CATA:1,2011-11-06T01:00:00Z,30.3085,-88.1395,2.427,25.77,1111122 
DISL,ioos:station:DISL:CATA:1,2011-11-06T01:30:00Z,30.3085,-88.1395,2.445,25.73,1111122 
DISL,ioos:station:DISL:CATA:1,2011-11-06T02:00:00Z,30.3085,-88.1395,2.47,25.78,1111122 
DISL,ioos:station:DISL:CATA:1,2011-11-06T02:30:00Z,30.3085,-88.1395,2.467,26.05,1111122 
DISL,ioos:station:DISL:CATA:1,2011-11-06T03:00:00Z,30.3085,-88.1395,2.473,26.22,1111122 
DISL,ioos:station:DISL:CATA:1,2011-11-06T03:30:00Z,30.3085,-88.1395,2.476,26.26,1111122 
DISL,ioos:station:DISL:CATA:1,2011-11-06T04:00:00Z,30.3085,-88.1395,2.472,26.28,1111122 
DISL,ioos:station:DISL:CATA:1,2011-11-06T04:30:00Z,30.3085,-88.1395,2.451,25.87,1111122 
DISL,ioos:station:DISL:CATA:1,2011-11-06T05:00:00Z,30.3085,-88.1395,2.449,25.85,1111122 
DISL,ioos:station:DISL:CATA:1,2011-11-06T05:30:00Z,30.3085,-88.1395,2.416,26.09,1111122 
DISL,ioos:station:DISL:CATA:1,2011-11-06T06:00:00Z,30.3085,-88.1395,2.381,26.26,1111122 
DISL,ioos:station:DISL:CATA:1,2011-11-06T06:30:00Z,30.3085,-88.1395,2.343,26.31,1111122 
DISL,ioos:station:DISL:CATA:1,2011-11-06T07:00:00Z,30.3085,-88.1395,2.308,26.34,1111122 
DISL,ioos:station:DISL:CATA:1,2011-11-06T07:30:00Z,30.3085,-88.1395,2.311,26.43,1111122 
DISL,ioos:station:DISL:CATA:1,2011-11-06T08:00:00Z,30.3085,-88.1395,2.307,26.43,1111122 
DISL,ioos:station:DISL:CATA:1,2011-11-06T08:30:00Z,30.3085,-88.1395,2.305,26.44,1111122 
DISL,ioos:station:DISL:CATA:1,2011-11-06T09:00:00Z,30.3085,-88.1395,2.322,26.45,1111122 
DISL,ioos:station:DISL:CATA:1,2011-11-06T09:30:00Z,30.3085,-88.1395,2.321,26.51,1111122 
DISL,ioos:station:DISL:CATA:1,2011-11-06T10:00:00Z,30.3085,-88.1395,2.319,26.59,1111122 
DISL,ioos:station:DISL:CATA:1,2011-11-06T10:30:00Z,30.3085,-88.1395,2.322,26.62,1111122 
DISL,ioos:station:DISL:CATA:1,2011-11-06T11:00:00Z,30.3085,-88.1395,2.316,26.67,1111122 
DISL,ioos:station:DISL:CATA:1,2011-11-06T11:30:00Z,30.3085,-88.1395,2.33,26.82,1111122 
DISL,ioos:station:DISL:CATA:1,2011-11-06T12:00:00Z,30.3085,-88.1395,2.339,26.88,1111122 
DISL,ioos:station:DISL:CATA:1,2011-11-06T12:30:00Z,30.3085,-88.1395,2.34,26.89,1111122 
DISL,ioos:station:DISL:CATA:1,2011-11-06T13:00:00Z,30.3085,-88.1395,2.363,26.9,1111122 
DISL,ioos:station:DISL:CATA:1,2011-11-06T13:30:00Z,30.3085,-88.1395,2.351,26.96,1111122 
DISL,ioos:station:DISL:CATA:1,2011-11-06T14:00:00Z,30.3085,-88.1395,2.352,27.0,1111122 